Raton, NM

3:09 PM MDT on August 23, 2016 (GMT -0600)
Raton Municipal-Crews

Weather History for KRTN - February, 2012

Change the Weather History Date:

Friday, February 24, 2012

  Actual Average (KTAD) Record (KTAD)
Temperature  
Mean Temperature 28 °F 36 °F  
Max Temperature 48 °F 52 °F 77 °F (1986)
Min Temperature 8 °F 21 °F -7 °F (1960)
Degree Days  
Heating Degree Days 37 29  
Month to date heating degree days 676  
Since 1 July heating degree days 3958  
Cooling Degree Days 0 0  
Month to date cooling degree days 0  
Year to date cooling degree days 0  
Moisture  
Dew Point 8 °F    
Average Humidity 49    
Maximum Humidity 83    
Minimum Humidity 16    
Precipitation  
Precipitation 0.02 in 0.02 in 0.37 in (1991)
Sea Level Pressure  
Sea Level Pressure 30.24 in    
Wind  
Wind Speed 6 mph (WSW)    
Max Wind Speed 12 mph    
Max Gust Speed -    
Visibility 10 miles    
Events      
T = Trace of Precipitation, MM = Missing Value Source: NWS Daily Summary

Daily Weather History Graph

Daily Weather History Graph

Search for Another Location

Airport or City:

Trip Planner

Search our weather history database for the weather conditions in past years. The results will help you decide how hot, cold, wet, or windy it might be!

Date:

Astronomy

Feb. 24, 2012 Rise Set
Actual Time 6:35 AM MST 5:47 PM MST
Civil Twilight 6:09 AM MST 6:13 PM MST
Nautical Twilight 5:39 AM MST 6:43 PM MST
Astronomical Twilight 5:09 AM MST 7:13 PM MST
Moon 7:37 AM MST (2/24) 8:46 PM MST (2/24)
Length of Visible Light 12h 03m
Length of Day
11h 11m
Waxing Crescent, 8% of the Moon is Illuminated
Feb 24
Waxing Crescent
Feb 29
First Quarter
Mar 8
Full
Mar 14
Last Quarter
Mar 22
New

Hourly Weather History & Observations

Time (MST) Temp. Windchill Dew Point Humidity Pressure Visibility Wind Dir Wind Speed Gust Speed Precip Events Conditions
12:53 AM 16.0 °F 5.3 °F 10.0 °F 77% 30.18 in 10.0 mi NNW 8.1 mph - 0.01 in   Clear
1:53 AM 14.0 °F - 8.1 °F 77% 30.18 in 10.0 mi Calm Calm - N/A   Clear
2:53 AM 15.1 °F 7.7 °F 8.1 °F 74% 30.19 in 10.0 mi East 4.6 mph - 0.01 in   Clear
3:53 AM 8.1 °F - 3.9 °F 83% 30.26 in 10.0 mi Calm Calm - N/A   Clear
4:53 AM 9.0 °F -3.2 °F 3.0 °F 77% 30.26 in 10.0 mi NNE 8.1 mph - N/A   Clear
5:53 AM 12.0 °F 2.7 °F 6.1 °F 77% 30.27 in 10.0 mi NE 5.8 mph - N/A   Clear
6:53 AM 12.0 °F 0.5 °F 6.1 °F 77% 30.29 in 10.0 mi North 8.1 mph - N/A   Clear
7:53 AM 16.0 °F 10.4 °F 9.0 °F 74% 30.30 in 10.0 mi NE 3.5 mph - N/A   Clear
8:53 AM 23.0 °F 13.9 °F 10.9 °F 60% 30.30 in 10.0 mi ENE 8.1 mph - N/A   Clear
9:53 AM 32.0 °F 27.5 °F 10.0 °F 40% 30.27 in 10.0 mi NE 4.6 mph - N/A   Clear
10:53 AM 36.0 °F 31.1 °F 10.0 °F 34% 30.25 in 10.0 mi Variable 5.8 mph - N/A   Clear
11:53 AM 39.0 °F 35.7 °F 10.0 °F 30% 30.24 in 10.0 mi SSW 4.6 mph - N/A   Clear
12:53 PM 43.0 °F 40.3 °F 8.1 °F 24% 30.19 in 10.0 mi Variable 4.6 mph - N/A   Clear
1:53 PM 45.0 °F 40.1 °F 8.1 °F 22% 30.18 in 10.0 mi SSW 9.2 mph - N/A   Clear
2:53 PM 46.9 °F - 3.0 °F 16% 30.17 in 10.0 mi SW 6.9 mph - N/A   Clear
3:53 PM 48.0 °F - 7.0 °F 19% 30.19 in 10.0 mi SSW 5.8 mph - N/A   Clear
4:53 PM 46.9 °F - 10.0 °F 22% 30.19 in 10.0 mi South 11.5 mph - N/A   Clear
5:53 PM 37.9 °F 32.1 °F 9.0 °F 30% 30.24 in 10.0 mi South 8.1 mph - N/A   Clear
6:53 PM 34.0 °F 28.0 °F 8.1 °F 34% 30.29 in 10.0 mi SSW 6.9 mph - N/A   Clear
7:53 PM 28.0 °F 21.7 °F 8.1 °F 43% 30.32 in 10.0 mi West 5.8 mph - N/A   Clear
8:53 PM 28.9 °F 22.8 °F 9.0 °F 43% 30.29 in 10.0 mi West 5.8 mph - N/A   Clear
9:53 PM 30.0 °F 24.1 °F 10.0 °F 43% 30.25 in 10.0 mi SW 5.8 mph - N/A   Clear
10:53 PM 27.0 °F 21.6 °F 10.0 °F 49% 30.24 in 10.0 mi West 4.6 mph - N/A   Clear
11:53 PM 21.9 °F 14.5 °F 9.0 °F 58% 30.22 in 10.0 mi NNW 5.8 mph - N/A   Clear